�N����,����,����,����,����,�C��,���x,�~����,�S�V����,�ő�u�ԕ���,,,,,
,,,,,,,,,����,����,����,�N��,,
yyyy/mm/dd,hh:mm:ss,(16),16����,m/s,��,%,mm,KW/�u,(16),16����,m/s,Time,,
2021/3/1,1:00:00,8,��,2.5,3.9,51.3,0,0,10,�쐼,8.5,2,,
2021/3/1,2:00:00,10,�쐼,6.4,6.8,36.3,0,0,10,�쐼,9.9,53,,
2021/3/1,3:00:00,10,�쐼,5.8,6.2,45.4,0,0,10,�쐼,10.9,58,,
2021/3/1,4:00:00,11,���쐼,7.2,6,58,0,0,11,���쐼,13,12,,
2021/3/1,5:00:00,11,���쐼,6.6,6.4,60.8,0,0,11,���쐼,12.4,30,,
2021/3/1,6:00:00,16,�k,2.5,4.9,58.2,0,0,11,���쐼,15.3,4,,
2021/3/1,7:00:00,2,�k��,2.3,2.6,63.9,0,0.04,2,�k��,5.3,23,,
2021/3/1,8:00:00,3,���k��,2.2,2.2,68.6,0,0.14,2,�k��,5.3,32,,
2021/3/1,9:00:00,3,���k��,1.9,4.3,72.5,0,0.4,2,�k��,3.1,18,,
2021/3/1,10:00:00,9,��쐼,4.8,5.2,68.7,0,0.6,10,�쐼,9.2,55,,
2021/3/1,11:00:00,9,��쐼,3.6,4.6,74.6,0,0.41,9,��쐼,9.2,1,,
2021/3/1,12:00:00,9,��쐼,4.1,4.9,74.7,0,0.38,9,��쐼,7,13,,
2021/3/1,13:00:00,9,��쐼,3.7,5.5,77.6,0,0.26,10,�쐼,8.2,38,,
2021/3/1,14:00:00,10,�쐼,3.4,5.3,77.7,0,0.27,8,��,7.9,45,,
2021/3/1,15:00:00,11,���쐼,0.6,5.2,79.2,0,0.26,9,��쐼,4.6,0,,
2021/3/1,16:00:00,9,��쐼,1.6,5.7,81.3,0,0.17,9,��쐼,8.8,42,,
2021/3/1,17:00:00,5.6,���쓌,78.6,0,0.04,,,,,,,,
2021/3/1,18:00:00,1,�k�k��,1.3,2.8,87.5,0,0.01,2,�k��,2.7,20,,
2021/3/1,19:00:00,1,�k�k��,0.7,2.3,92.2,0,0,5,���쓌,2.5,45,,
2021/3/1,20:00:00,1,�k�k��,3.3,2.6,86.7,0,0,2,�k��,9.1,59,,
2021/3/1,21:00:00,2,�k��,4.9,0.9,87.3,0,0,2,�k��,9,3,,
2021/3/1,22:00:00,2,�k��,4.5,-0.2,96,0,0,2,�k��,7.7,5,,
2021/3/1,23:00:00,2,�k��,3.1,-0.6,98.7,0,0,2,�k��,6.4,30,,
2021/3/1,0:00:00,3,���k��,2.2,-0.9,99,0,0,3,���k��,5.4,34,,
2021/3/2,1:00:00,2,�k��,2.5,-1.3,99.3,0,0,2,�k��,6.1,26,,
2021/3/2,2:00:00,3,���k��,3.1,-1.4,99.2,0,0,4,��,6.2,37,,
2021/3/2,3:00:00,2,�k��,1.7,-1.6,99.9,0,0,3,���k��,4.1,0,,
2021/3/2,4:00:00,2,�k��,2.4,-1.9,99.2,0.5,0,3,���k��,5.3,28,,
2021/3/2,5:00:00,2,�k��,2.1,-2.1,99.3,0,0,3,���k��,4.8,21,,
2021/3/2,6:00:00,2,�k��,1.2,-2.4,99.6,0.5,0,1,�k�k��,4,6,,
2021/3/2,7:00:00,2,�k��,0.7,-2.4,99.2,0.5,0.01,2,�k��,4.9,17,,
2021/3/2,8:00:00,15,�k�k��,1,-2.3,99.7,0,0.02,16,�k,2.3,46,,
2021/3/2,9:00:00,15,�k�k��,2.3,-2.9,98,0.5,0.05,15,�k�k��,4.7,46,,
2021/3/2,10:00:00,15,�k�k��,2.9,-2.9,93.9,0,0.11,15,�k�k��,4.8,57,,
2021/3/2,11:00:00,14,�k��,2.9,-2.8,90.7,0,0.15,14,�k��,6.5,45,,
2021/3/2,12:00:00,14,�k��,2.5,-2.8,91,0,0.13,14,�k��,5.7,12,,
2021/3/2,13:00:00,15,�k�k��,3.7,-3.1,88.9,0,0.11,15,�k�k��,7.1,56,,
2021/3/2,14:00:00,15,�k�k��,2.9,-3,90.7,0.5,0.09,15,�k�k��,7,1,,
2021/3/2,15:00:00,15,�k�k��,4,-2.9,89.9,0.5,0.07,15,�k�k��,6.7,59,,
2021/3/2,16:00:00,15,�k�k��,4.2,-3,91.7,0,0.05,15,�k�k��,8.2,36,,
2021/3/2,17:00:00,15,�k�k��,5,-3.1,94.6,0.5,0.02,15,�k�k��,9.9,53,,
2021/3/2,18:00:00,15,�k�k��,4.3,-2.8,92.2,0,0,16,�k,10.4,36,,
2021/3/2,19:00:00,15,�k�k��,4.3,-2.4,87,0,0,16,�k,11,6,,
2021/3/2,20:00:00,16,�k,4.5,-2.8,86.3,0,0,16,�k,10.6,22,,
2021/3/2,21:00:00,16,�k,3.9,-3.2,86.5,0,0,16,�k,8.8,10,,
2021/3/2,22:00:00,16,�k,5.3,-2.6,70.2,0,0,16,�k,11,40,,
2021/3/2,23:00:00,16,�k,5.8,-3.1,69.9,0,0,15,�k�k��,13.8,33,,
2021/3/2,0:00:00,16,�k,5.5,-3.5,69.5,0,0,1,�k�k��,10.7,4,,
2021/3/3,1:00:00,16,�k,4.1,-3.5,65.8,0,0,16,�k,10,12,,
2021/3/3,2:00:00,16,�k,4.1,-4,65.5,0,0,1,�k�k��,8.6,36,,
2021/3/3,3:00:00,16,�k,4.6,-5.4,64.9,0,0,15,�k�k��,8.5,54,,
2021/3/3,4:00:00,16,�k,4.3,-6.1,65.3,0,0,16,�k,7.9,11,,
2021/3/3,5:00:00,16,�k,1.8,-7.5,69,0,0,1,�k�k��,7.9,9,,
2021/3/3,6:00:00,1,�k�k��,2.3,-8.8,72.8,0,0,2,�k��,4.1,51,,
2021/3/3,7:00:00,1,�k�k��,5,-7.4,63.8,0,0.09,1,�k�k��,8,46,,
2021/3/3,8:00:00,2,�k��,3.8,-6.9,54.5,0,0.31,1,�k�k��,7.9,20,,
2021/3/3,9:00:00,2,�k��,4.7,-6.6,45.7,0,0.52,2,�k��,7.3,37,,
2021/3/3,10:00:00,3,���k��,1,-4.4,51.1,0,0.67,2,�k��,7.3,2,,
2021/3/3,11:00:00,14,�k��,3,-3.6,38.9,1,0.78,14,�k��,5.6,53,,
2021/3/3,12:00:00,15,�k�k��,2,-2.4,37.1,1,0.82,14,�k��,5.9,20,,
2021/3/3,13:00:00,5,���쓌,2.2,-2.4,51.7,1,0.79,14,�k��,7,8,,
2021/3/3,14:00:00,7,��쓌,3.3,-3.3,50.3,0,0.7,8,��,7,46,,
2021/3/3,15:00:00,7,��쓌,3,-3.5,52.4,0.5,0.57,6,�쓌,6.6,18,,
2021/3/3,16:00:00,8,��,2.5,-3.8,54.3,0.5,0.37,8,��,5.2,12,,
2021/3/3,17:00:00,7,��쓌,1.6,-4.6,61.1,0.5,0.14,7,��쓌,4.5,0,,
2021/3/3,18:00:00,8,��,1,-5.2,66.3,0,0.01,8,��,3.5,5,,
2021/3/3,19:00:00,8,��,0.5,-9.3,72.1,0,0,9,��쐼,3.4,55,,
2021/3/3,20:00:00,13,���k��,0.9,-14,88.4,0,0,9,��쐼,6.8,23,,
2021/3/3,21:00:00,13,���k��,2.2,-12.4,90.1,0,0,13,���k��,2.8,55,,
2021/3/3,22:00:00,12,��,1.1,-13,90.4,0,0,12,��,2.9,58,,
2021/3/3,23:00:00,13,���k��,2.4,-11.3,94.3,0,0,13,���k��,4.2,37,,
2021/3/3,0:00:00,14,�k��,2.7,-10.1,88.8,0,0,14,�k��,4.7,1,,
2021/3/4,1:00:00,14,�k��,2.7,-9.9,84.8,0,0,14,�k��,5,27,,
2021/3/4,2:00:00,14,�k��,2.6,-10.6,80.5,0,0,14,�k��,5.5,38,,
2021/3/4,3:00:00,-12.4,#N/A,86.5,0,0,,,,,,,,
2021/3/4,4:00:00,13,���k��,2.7,-13.3,85.7,0,0,12,��,3.5,56,,
2021/3/4,5:00:00,13,���k��,2,-14.5,86.9,0,0,14,�k��,3.4,42,,
2021/3/4,6:00:00,14,�k��,1.7,-14.7,89.4,0,0.01,14,�k��,3.3,48,,
2021/3/4,7:00:00,13,���k��,2.4,-14.4,84.8,0,0.08,12,��,3.1,59,,
2021/3/4,8:00:00,14,�k��,0.6,-10.6,75.6,0,0.29,13,���k��,3.1,1,,
2021/3/4,9:00:00,16,�É�,0.1,-6.3,67,0,0.51,16,�k,2.1,42,,
2021/3/4,10:00:00,3,���k��,1.4,-3.3,70,0,0.66,3,���k��,2.4,58,,
2021/3/4,11:00:00,3,���k��,1.9,-0.5,76.5,0,0.76,4,��,3.4,37,,
2021/3/4,12:00:00,8,��,4.2,2.3,62.3,0.5,0.8,8,��,7.7,56,,
2021/3/4,13:00:00,8,��,5.5,2.4,64.6,1,0.77,8,��,10.1,27,,
2021/3/4,14:00:00,8,��,5.8,2.9,64.9,2,0.68,8,��,9.9,30,,
2021/3/4,15:00:00,8,��,5.5,2.4,69.2,1.5,0.54,9,��쐼,8.7,1,,
2021/3/4,16:00:00,8,��,4.9,1.8,77.5,0.5,0.35,8,��,9.2,16,,
2021/3/4,17:00:00,8,��,6.4,1,87.3,0.5,0.13,8,��,11.6,46,,
2021/3/4,18:00:00,8,��,6.1,1.1,91.1,0.5,0.01,8,��,12.1,19,,
2021/3/4,19:00:00,8,��,6.1,1.1,90.9,0,0,8,��,11.3,42,,
2021/3/4,20:00:00,8,��,5.2,0.8,93,0,0,7,��쓌,10.3,18,,
2021/3/4,21:00:00,9,��쐼,3,1.5,90.1,0,0,8,��,7.3,0,,
2021/3/4,22:00:00,9,��쐼,4.1,2.3,91.1,0,0,9,��쐼,7.8,59,,
2021/3/4,23:00:00,9,��쐼,4.1,2.2,93.2,0,0,8,��,8.6,32,,
2021/3/4,0:00:00,13,���k��,2.9,-2.6,91,0.5,0,9,��쐼,6.8,3,,
2021/3/5,1:00:00,14,�k��,2.5,-1.2,88.6,0,0,12,��,3.9,3,,
2021/3/5,2:00:00,14,�k��,2.3,-2.1,77.6,0,0,14,�k��,5.1,17,,
2021/3/5,3:00:00,14,�k��,2.6,-3.2,76,0,0,14,�k��,5.5,13,,
2021/3/5,4:00:00,12,��,1.5,-4.4,83.5,0,0,15,�k�k��,4.7,15,,
2021/3/5,5:00:00,13,���k��,1.9,-5.4,86,0,0,13,���k��,3.6,19,,
2021/3/5,6:00:00,12,��,2.7,-5.7,90.7,0,0,12,��,3.9,47,,
2021/3/5,7:00:00,11,���쐼,2.8,-4.9,87.8,0,0.08,10,�쐼,3.8,52,,
2021/3/5,8:00:00,9,��쐼,4.5,6.3,65.3,0,0.24,8,��,8.2,58,,
2021/3/5,9:00:00,8,��,4.2,5.3,67.2,0,0.41,8,��,7.5,21,,
2021/3/5,10:00:00,8,��,4.2,7.6,57.2,0,0.65,8,��,7.2,51,,
2021/3/5,11:00:00,8,��,4.1,7.9,57,0,0.75,8,��,8.1,13,,
2021/3/5,12:00:00,8,��,5.3,6.9,59.2,0,0.79,7,��쓌,9.2,45,,
2021/3/5,13:00:00,8,��,4.8,7.8,57,0,0.76,8,��,8.5,4,,
2021/3/5,14:00:00,8,��,4.4,7.6,56.8,0,0.67,8,��,8.2,11,,
2021/3/5,15:00:00,6,�쓌,2.1,5.9,67.5,0,0.54,8,��,6.9,5,,
2021/3/5,16:00:00,9,��쐼,3.6,8.6,59.9,0,0.35,8,��,6.6,54,,
2021/3/5,17:00:00,9,��쐼,3.6,7.8,65.2,0,0.13,9,��쐼,7.7,21,,
2021/3/5,18:00:00,9,��쐼,3.5,7.4,68.8,0,0.01,9,��쐼,7.8,32,,
2021/3/5,19:00:00,9,��쐼,3.4,6.7,70.3,0,0,9,��쐼,7.4,10,,
2021/3/5,20:00:00,9,��쐼,2.7,6.8,71.7,0,0,10,�쐼,5.8,49,,
2021/3/5,21:00:00,8,��,3.3,6,73.8,0,0,8,��,5.7,53,,
2021/3/5,22:00:00,7,��쓌,4.1,5.5,77,0,0,7,��쓌,7.3,51,,
2021/3/5,23:00:00,9,��쐼,1.2,5.6,75.1,0,0,7,��쓌,6.4,0,,
2021/3/5,0:00:00,9,��쐼,2.3,9.5,64.8,0,0,10,�쐼,5.9,21,,
2021/3/6,1:00:00,7,��쓌,2.3,8.4,73.1,0,0,8,��,4.5,10,,
2021/3/6,2:00:00,10,�쐼,1.7,7.1,88.2,0,0,6,�쓌,8.1,11,,
2021/3/6,3:00:00,11,���쐼,2.1,5.6,83,0.5,0,9,��쐼,5.3,47,,
2021/3/6,4:00:00,10,�쐼,1.5,6.2,81.1,0,0,10,�쐼,5.8,15,,
2021/3/6,5:00:00,13,���k��,2.5,4.2,98.8,0,0,14,�k��,5.9,56,,
2021/3/6,6:00:00,2,�k��,1,3.7,86.1,0,0.01,14,�k��,5.2,16,,
2021/3/6,7:00:00,14,�k��,2.3,3.5,79.6,0,0.12,14,�k��,4.3,51,,
2021/3/6,8:00:00,16,�k,2.1,4,71.9,0,0.18,13,���k��,4.4,5,,
2021/3/6,9:00:00,14,�k��,2.5,4.5,57.3,0,0.46,15,�k�k��,5.7,22,,
2021/3/6,10:00:00,14,�k��,2.4,4.8,47.7,0,0.57,14,�k��,6.6,48,,
2021/3/6,11:00:00,15,�k�k��,5,2.7,49.3,0,0.76,14,�k��,9,44,,
2021/3/6,12:00:00,15,�k�k��,3.4,2.3,44.4,0,0.82,14,�k��,10.2,4,,
2021/3/6,13:00:00,15,�k�k��,5.5,1.6,40.9,0,0.8,15,�k�k��,9.1,32,,
2021/3/6,14:00:00,14,�k��,4.7,1,43.4,0,0.71,14,�k��,9.6,48,,
2021/3/6,15:00:00,14,�k��,5.1,0.4,43.1,0,0.58,14,�k��,9.5,51,,
2021/3/6,16:00:00,14,�k��,3.2,-0.7,52.2,0,0.46,14,�k��,7.9,24,,
2021/3/6,17:00:00,4,��,2.8,-2,69.7,0,0.19,14,�k��,5.6,5,,
2021/3/6,18:00:00,13,���k��,2.5,-3.2,65.7,0,0.01,3,���k��,4.1,1,,
2021/3/6,19:00:00,16,�k,3.5,-3.8,53.6,0,0,16,�k,7.1,58,,
2021/3/6,20:00:00,1,�k�k��,2.2,-4,54.2,0,0,1,�k�k��,7.3,20,,
2021/3/6,21:00:00,2,�k��,1.4,-4.8,55.1,0,0,1,�k�k��,3.9,1,,
2021/3/6,22:00:00,14,�k��,2.3,-4.9,48.3,0,0,16,�k,4.2,36,,
2021/3/6,23:00:00,14,�k��,1.2,-6.2,54.2,0,0,14,�k��,3.4,5,,
2021/3/6,0:00:00,13,���k��,1.6,-9.5,65.4,0,0,13,���k��,2.5,49,,
2021/3/7,1:00:00,13,���k��,2.4,-9.1,65.4,0,0,14,�k��,3.2,59,,
2021/3/7,2:00:00,13,���k��,2.5,-9.4,67,0,0,13,���k��,3.8,5,,
2021/3/7,3:00:00,13,���k��,2.5,-11.1,73.8,0,0,14,�k��,3.4,2,,
2021/3/7,4:00:00,13,���k��,2.6,-12.5,78.6,0,0,12,��,3.2,1,,
2021/3/7,5:00:00,13,���k��,2.4,-14.1,82.4,0,0,13,���k��,3.6,59,,
2021/3/7,6:00:00,12,��,2.1,-13.7,81.8,0,0.01,13,���k��,3.4,0,,
2021/3/7,7:00:00,13,���k��,2.2,-13.9,77.8,0,0.12,13,���k��,3.4,4,,
2021/3/7,8:00:00,14,�k��,1.4,-7.3,65.6,0,0.34,14,�k��,2.1,57,,
2021/3/7,9:00:00,12,��,0.9,-4.4,55.3,0,0.55,12,��,2,13,,
2021/3/7,10:00:00,4,��,0.3,-0.2,40.8,0,0.7,6,�쓌,2.1,52,,
2021/3/7,11:00:00,6,�쓌,2.2,-1.7,41.1,0,0.79,5,���쓌,3.7,29,,
2021/3/7,12:00:00,5,���쓌,2.1,-1,44.7,0,0.83,6,�쓌,4.7,22,,
2021/3/7,13:00:00,6,�쓌,2.3,-1.5,41.5,0,0.8,6,�쓌,3.8,2,,
2021/3/7,14:00:00,6,�쓌,2.4,-1.3,48.5,0,0.71,8,��,3.9,17,,
2021/3/7,15:00:00,8,��,2.4,-1.6,48.1,0,0.57,7,��쓌,3.7,39,,
2021/3/7,16:00:00,7,��쓌,1.2,-1.7,53.6,0,0.38,6,�쓌,3.1,32,,
2021/3/7,17:00:00,16,�k,0.5,-2.6,58.4,0,0.16,6,�쓌,2.1,26,,
2021/3/7,18:00:00,8,��,1,-6.2,72.1,0,0.01,7,��쓌,1.6,43,,
2021/3/7,19:00:00,11,���쐼,0.6,-9.1,73.4,0,0,15,�k�k��,2.3,26,,
2021/3/7,20:00:00,13,���k��,0.6,-9.8,85,0,0,8,��,2.1,1,,
2021/3/7,21:00:00,13,���k��,0.6,-10,85.7,0,0,13,���k��,2.1,14,,
2021/3/7,22:00:00,14,�k��,0.8,-11.6,88.1,0,0,12,��,2,39,,
2021/3/7,23:00:00,14,�k��,1.9,-11.1,82.4,0,0,14,�k��,2.2,54,,
2021/3/7,0:00:00,13,���k��,1.2,-10.7,85.5,0,0,13,���k��,3.2,31,,
2021/3/8,1:00:00,13,���k��,2.3,-10.9,81.7,0,0,13,���k��,3,55,,
2021/3/8,2:00:00,13,���k��,1.4,-12.6,82.8,0,0,13,���k��,3.4,2,,
2021/3/8,3:00:00,13,���k��,1.6,-12.3,83,0,0,12,��,3.2,31,,
2021/3/8,4:00:00,12,��,2.8,-13.5,86.5,0,0,13,���k��,3.8,7,,
2021/3/8,5:00:00,13,���k��,4,-12.8,88.5,0,0,13,���k��,4.9,52,,
2021/3/8,6:00:00,13,���k��,1.9,-14.6,86.3,0,0.01,12,��,4.2,24,,
2021/3/8,7:00:00,13,���k��,3.1,-12.7,83.1,0,0.12,12,��,4.1,39,,
2021/3/8,8:00:00,13,���k��,0.8,-8.4,72.3,0,0.34,12,��,3.5,4,,
2021/3/8,9:00:00,16,�É�,0,-2.6,65.1,0,0.55,12,��,2.5,18,,
2021/3/8,10:00:00,6,�쓌,1.2,2.1,55.6,0,0.69,4,��,2.5,38,,
2021/3/8,11:00:00,10,�쐼,3.5,2.3,47.1,0,0.79,11,���쐼,5.9,55,,
2021/3/8,12:00:00,8,��,3.1,2.9,46.6,0,0.73,11,���쐼,7.4,12,,
2021/3/8,13:00:00,14,�k��,1.2,4.6,35.1,0,0.77,10,�쐼,6.1,19,,
2021/3/8,14:00:00,11,���쐼,2.9,3.4,49.5,0,0.66,10,�쐼,6.2,31,,
2021/3/8,15:00:00,14,�k��,3,3.5,36.2,0,0.53,14,�k��,5.4,48,,
2021/3/8,16:00:00,15,�k�k��,2.4,3.1,42.9,0,0.39,14,�k��,7,21,,
2021/3/8,17:00:00,14,�k��,3.3,1.5,47,0,0.1,15,�k�k��,8,19,,
2021/3/8,18:00:00,15,�k�k��,1.3,0.3,53.6,0,0.01,14,�k��,6,0,,
2021/3/8,19:00:00,13,���k��,1.8,-3.4,72.1,0,0,13,���k��,3.1,59,,
2021/3/8,20:00:00,12,��,2.1,-4.7,75.5,0,0,13,���k��,4.6,6,,
2021/3/8,21:00:00,13,���k��,1.1,-7.2,79.9,0,0,13,���k��,2.9,44,,
2021/3/8,22:00:00,-9.3,#N/A,81.7,0,0,,,,,,,,
2021/3/8,23:00:00,13,���k��,1.2,-8.5,82.6,0,0,13,���k��,2.3,43,,
2021/3/8,0:00:00,13,���k��,1.8,-10.4,85.6,0,0,13,���k��,2.8,42,,
2021/3/9,1:00:00,13,���k��,2,-8.4,88.9,0,0,12,��,3.7,30,,
2021/3/9,2:00:00,13,���k��,1.7,-10.8,88.8,0,0,14,�k��,3.1,3,,
2021/3/9,3:00:00,13,���k��,1.2,-10.7,89.2,0,0,14,�k��,2.9,3,,
2021/3/9,4:00:00,13,���k��,2.2,-9.1,89.5,0,0,13,���k��,3,56,,
2021/3/9,5:00:00,14,�k��,2.6,-6.5,81.4,0,0,14,�k��,3.9,59,,
2021/3/9,6:00:00,14,�k��,2.5,-5.8,78.9,0,0.01,14,�k��,4.2,55,,
2021/3/9,7:00:00,14,�k��,2.9,-5.1,72.6,0,0.12,14,�k��,4.2,58,,
2021/3/9,8:00:00,14,�k��,2.5,-3,68.8,0,0.36,14,�k��,4.5,8,,
2021/3/9,9:00:00,13,���k��,1.5,-1,68.5,0,0.61,14,�k��,4.5,15,,
2021/3/9,10:00:00,6,�쓌,1.4,1.2,66.8,0,0.7,12,��,12.6,13,,
2021/3/9,11:00:00,5,���쓌,2.3,0.1,71.8,0,0.79,5,���쓌,4.2,42,,
2021/3/9,12:00:00,6,�쓌,2.7,0.1,75.2,0,0.84,5,���쓌,4.1,50,,
2021/3/9,13:00:00,5,���쓌,1.9,1,76.9,0,0.81,5,���쓌,3.9,12,,
2021/3/9,14:00:00,4,��,2,1.6,75.6,0,0.72,5,���쓌,3,2,,
2021/3/9,15:00:00,2,�k��,1.7,1.1,76.2,0,0.58,4,��,2.7,0,,
2021/3/9,16:00:00,3,���k��,1.1,1.6,78.4,0,0.39,2,�k��,2.2,38,,
2021/3/9,17:00:00,8,��,2,0.5,73.1,0,0.17,8,��,2.8,56,,
2021/3/9,18:00:00,9,��쐼,2.3,1.4,51,0,0.02,10,�쐼,4.2,44,,
2021/3/9,19:00:00,9,��쐼,3,1.9,54.1,0,0,8,��,5.7,59,,
2021/3/9,20:00:00,7,��쓌,3,0.6,72.6,0,0,8,��,8.2,34,,
2021/3/9,21:00:00,10,�쐼,4.2,1.5,69.6,0,0,10,�쐼,9.1,56,,
2021/3/9,22:00:00,9,��쐼,4.1,1.7,72.1,0,0,9,��쐼,9.6,44,,
2021/3/9,23:00:00,9,��쐼,3,1.9,70.8,0,0,8,��,8.9,21,,
2021/3/9,0:00:00,7,��쓌,1.8,1.3,79.7,0,0,8,��,6.6,9,,
2021/3/10,1:00:00,9,��쐼,2.8,1.7,83.8,0,0,9,��쐼,5.5,59,,
2021/3/10,2:00:00,13,���k��,2,-3.3,90.6,0,0,9,��쐼,4.1,2,,
2021/3/10,3:00:00,12,��,1.5,-6.2,91.4,0,0,13,���k��,3.2,57,,
2021/3/10,4:00:00,16,�É�,0.2,-5.9,90.6,0,0,13,���k��,3.8,19,,
2021/3/10,5:00:00,13,���k��,0.9,-8.3,93.3,0,0,11,���쐼,2.4,46,,
2021/3/10,6:00:00,13,���k��,1.8,-7.2,94.4,0,0.01,13,���k��,3.4,24,,
2021/3/10,7:00:00,13,���k��,1.6,-4.4,90.8,0,0.15,13,���k��,3.5,25,,
2021/3/10,8:00:00,10,�쐼,1.7,-1,88.8,0,0.17,10,�쐼,3.1,59,,
2021/3/10,9:00:00,15,�k�k��,2.8,0.6,81.1,0,0.37,12,��,8,39,,
2021/3/10,10:00:00,6,�쓌,1.1,2.7,72,0,0.51,1,�k�k��,3,4,,
2021/3/10,11:00:00,11,���쐼,4.3,4.5,56.9,0,0.79,12,��,7.5,45,,
2021/3/10,12:00:00,12,��,4.1,5.4,50.7,0,0.85,13,���k��,7,59,,
2021/3/10,13:00:00,14,�k��,4.1,4.8,49.6,0,0.75,14,�k��,8.9,46,,
2021/3/10,14:00:00,14,�k��,5.8,4.6,55.3,0,0.58,15,�k�k��,10.7,57,,
2021/3/10,15:00:00,15,�k�k��,9.2,4.8,46.2,0,0.43,15,�k�k��,16.9,36,,
2021/3/10,16:00:00,13,���k��,7.6,3.5,50.3,0,0.37,15,�k�k��,16.9,28,,
2021/3/10,17:00:00,15,�k�k��,6.3,2.4,53.5,0,0.16,14,�k��,13.7,20,,
2021/3/10,18:00:00,15,�k�k��,7.9,1.7,51.1,0,0.02,15,�k�k��,15.4,56,,
2021/3/10,19:00:00,15,�k�k��,7.5,1,53.7,0,0,14,�k��,14.5,55,,
2021/3/10,20:00:00,15,�k�k��,5.2,0.3,57.3,0,0,14,�k��,15.9,8,,
2021/3/10,21:00:00,15,�k�k��,4.7,-0.4,55.2,0,0,16,�k,11.1,13,,
2021/3/10,22:00:00,14,�k��,5.9,-0.4,54.3,0,0,15,�k�k��,11.3,57,,
2021/3/10,23:00:00,14,�k��,4.3,-0.5,53.8,0,0,15,�k�k��,11.8,33,,
2021/3/10,0:00:00,15,�k�k��,4.1,-0.8,54.6,0,0,14,�k��,12.2,14,,
2021/3/11,1:00:00,14,�k��,3.3,-1,51.4,0,0,15,�k�k��,8.8,38,,
2021/3/11,2:00:00,13,���k��,2.6,-2.7,57.5,0,0,13,���k��,5.6,41,,
2021/3/11,3:00:00,14,�k��,1.9,-3,54,0,0,13,���k��,6.5,21,,
2021/3/11,4:00:00,14,�k��,1.8,-4.1,57.6,0,0,14,�k��,2.7,51,,
2021/3/11,5:00:00,12,��,1.6,-6.5,73.5,0,0,9,��쐼,3,20,,
2021/3/11,6:00:00,13,���k��,2.8,-5.8,69.4,0,0.01,10,�쐼,4.8,10,,
2021/3/11,7:00:00,15,�k�k��,0.4,-7.2,75.2,0,0.12,16,�k,2.7,55,,
2021/3/11,8:00:00,12,��,0.7,-3.9,64.2,0,0.35,12,��,4.7,28,,
2021/3/11,9:00:00,5,���쓌,2.5,1.2,49.8,0,0.55,4,��,7.5,28,,
2021/3/11,10:00:00,4,��,1.2,4,52.6,0,0.69,6,�쓌,4,8,,
2021/3/11,11:00:00,4,��,1.5,3.5,55.5,0,0.8,4,��,3.2,31,,
2021/3/11,12:00:00,4,��,1.8,3.7,60.6,0,0.85,3,���k��,2.9,45,,
2021/3/11,13:00:00,3,���k��,2.2,3.9,64,0,0.81,3,���k��,3.4,46,,
2021/3/11,14:00:00,3,���k��,1.5,3.9,71.3,0,0.73,3,���k��,3.6,35,,
2021/3/11,15:00:00,6,�쓌,1.6,3.2,49.3,0,0.58,7,��쓌,2.7,57,,
2021/3/11,16:00:00,5,���쓌,0.4,4,43.1,0,0.39,5,���쓌,2.4,3,,
2021/3/11,17:00:00,10,�쐼,1.3,1.9,43.6,0,0.16,8,��,2.5,10,,
2021/3/11,18:00:00,14,�k��,0.7,-1.2,61.1,0,0.01,11,���쐼,2.5,13,,
2021/3/11,19:00:00,10,�쐼,2.3,-1.1,62,0,0,10,�쐼,4.6,27,,
2021/3/11,20:00:00,14,�k��,0.6,-3.7,79,0,0,12,��,2.4,39,,
2021/3/11,21:00:00,12,��,0.8,-4.2,78.2,0,0,14,�k��,7,1,,
2021/3/11,22:00:00,14,�k��,0.5,-5.3,83.8,0,0,12,��,2.3,32,,
2021/3/11,23:00:00,16,�É�,0.1,-5,85,0,0,13,���k��,2.7,34,,
2021/3/11,0:00:00,13,���k��,1.3,-5.2,87.2,0,0,13,���k��,2,56,,
2021/3/12,1:00:00,13,���k��,1.5,-4.1,88.8,0,0,12,��,2.8,17,,
2021/3/12,2:00:00,13,���k��,0.8,-3.5,89.1,0,0,13,���k��,2.6,33,,
2021/3/12,3:00:00,12,��,1.9,-2.4,87.5,0,0,12,��,2.5,18,,
2021/3/12,4:00:00,16,�É�,0.2,-2.2,89.9,0,0,16,�k,8.1,54,,
2021/3/12,5:00:00,-2.5,#N/A,91.4,0,0,,,,,,,,
2021/3/12,6:00:00,11,���쐼,1.2,-2.1,90.2,0,0.01,14,�k��,2.1,34,,
2021/3/12,7:00:00,14,�k��,0.7,-2.2,88.8,0,0.05,16,�k,3.1,47,,
2021/3/12,8:00:00,14,�k��,0.6,1.5,70,0,0.26,14,�k��,2.5,46,,
2021/3/12,9:00:00,2,�k��,1.9,4.4,67,0,0.52,2,�k��,2.9,55,,
2021/3/12,10:00:00,4,��,3.5,3.5,69.9,0,0.68,4,��,4.2,59,,
2021/3/12,11:00:00,6,�쓌,2,3.8,70.4,0,0.8,4,��,3.9,0,,
2021/3/12,12:00:00,7,��쓌,2.1,3.8,61.8,0,0.84,6,�쓌,2.9,13,,
2021/3/12,13:00:00,9,��쐼,2.5,4.7,56.4,0,0.82,9,��쐼,4.3,28,,
2021/3/12,14:00:00,7,��쓌,2.5,5.7,56.8,0,0.73,10,�쐼,3.9,11,,
2021/3/12,15:00:00,9,��쐼,2.7,4.6,64.2,0,0.59,9,��쐼,5.5,37,,
2021/3/12,16:00:00,10,�쐼,2.1,5.6,63.1,0,0.4,10,�쐼,4.4,27,,
2021/3/12,17:00:00,14,�k��,3.3,6.6,43,0,0.17,15,�k�k��,5.5,58,,
2021/3/12,18:00:00,15,�k�k��,3.2,4.7,50.7,0,0.02,16,�k,6.9,51,,
2021/3/12,19:00:00,14,�k��,1.8,3.3,50.7,0,0,14,�k��,7.1,18,,
2021/3/12,20:00:00,3,���k��,3.8,1.7,73.1,0,0,5,���쓌,7.4,49,,
2021/3/12,21:00:00,2,�k��,2.4,0.9,73.5,0,0,3,���k��,6.1,9,,
2021/3/12,22:00:00,2,�k��,1.7,0.5,71.8,0,0,3,���k��,4.4,5,,
2021/3/12,23:00:00,12,��,1.2,-3.3,88.3,0,0,2,�k��,2.3,6,,
2021/3/12,0:00:00,13,���k��,1.7,-4.7,87.3,0,0,12,��,2.4,51,,
2021/3/13,1:00:00,13,���k��,1.5,-6.6,91.7,0,0,13,���k��,2.4,6,,
2021/3/13,2:00:00,13,���k��,1.8,-6.6,90.2,0,0,13,���k��,2.3,40,,
2021/3/13,3:00:00,13,���k��,0.9,-7.1,93.4,0,0,13,���k��,2.5,29,,
2021/3/13,4:00:00,13,���k��,2.2,-7.4,93.2,0,0,12,��,2.7,58,,
2021/3/13,5:00:00,13,���k��,1.8,-8.3,94.6,0,0,13,���k��,2.6,11,,
2021/3/13,6:00:00,13,���k��,2.1,-8.6,93.6,0,0.01,13,���k��,2.6,50,,
2021/3/13,7:00:00,13,���k��,1.5,-5.6,87.3,0,0.14,14,�k��,3,41,,
2021/3/13,8:00:00,14,�k��,1.8,-1,69.6,0,0.36,13,���k��,3.3,17,,
2021/3/13,9:00:00,14,�k��,0.7,1,67.4,0,0.54,14,�k��,2.5,1,,
2021/3/13,10:00:00,5,���쓌,1.7,2.6,64.3,0,0.58,8,��,2.9,22,,
2021/3/13,11:00:00,2,�k��,1.5,2.8,66.3,0,0.49,5,���쓌,2.4,4,,
2021/3/13,12:00:00,3,���k��,1.8,4.1,69.2,0,0.78,3,���k��,2.8,46,,
2021/3/13,13:00:00,5,���쓌,2.6,3.2,70.7,0,0.82,4,��,3.5,45,,
2021/3/13,14:00:00,5,���쓌,2.4,3.2,72.9,0,0.65,5,���쓌,3.3,0,,
2021/3/13,15:00:00,5,���쓌,2.3,2.2,79.4,0,0.49,4,��,3.7,38,,
2021/3/13,16:00:00,5,���쓌,1,1.3,85.7,0,0.24,5,���쓌,3.1,1,,
2021/3/13,17:00:00,3,���k��,0.9,0.4,91.1,0,0.09,4,��,2.5,26,,
2021/3/13,18:00:00,2,�k��,1.4,0.2,93.9,0,0.01,1,�k�k��,2.5,59,,
2021/3/13,19:00:00,16,�k,0.6,-0.1,95.9,0,0,1,�k�k��,2.8,3,,
2021/3/13,20:00:00,16,�É�,0.2,-0.4,95.8,0,0,1,�k�k��,2.5,21,,
2021/3/13,21:00:00,16,�É�,0.1,-1.2,95.2,0,0,14,�k��,7,56,,
2021/3/13,22:00:00,14,�k��,1.1,-0.2,94.6,0,0,14,�k��,2.6,0,,
2021/3/13,23:00:00,15,�k�k��,1.5,0.3,92.6,0,0,15,�k�k��,3,45,,
2021/3/13,0:00:00,14,�k��,1.2,0.3,93.2,0,0,15,�k�k��,2,3,,
2021/3/14,1:00:00,14,�k��,1.7,0.9,90.4,0,0,14,�k��,2.6,55,,
2021/3/14,2:00:00,14,�k��,2.2,1,91.8,0,0,14,�k��,4.2,58,,
2021/3/14,3:00:00,15,�k�k��,3.4,0.8,94.5,0,0,15,�k�k��,6.3,59,,
2021/3/14,4:00:00,15,�k�k��,3,0.9,96.7,0,0,14,�k��,6.4,1,,
2021/3/14,5:00:00,15,�k�k��,3.5,0.9,95.1,0,0,14,�k��,7.6,22,,
2021/3/14,6:00:00,14,�k��,5.1,0.8,96.8,0,0.01,14,�k��,8.8,59,,
2021/3/14,7:00:00,14,�k��,5.2,0.9,96.2,0.5,0.03,15,�k�k��,9.8,29,,
2021/3/14,8:00:00,14,�k��,5,1.2,96.3,0.5,0.04,14,�k��,8.8,9,,
2021/3/14,9:00:00,15,�k�k��,3.3,1.9,94.1,1,0.08,14,�k��,8.9,1,,
2021/3/14,10:00:00,15,�k�k��,3.8,2.2,93.3,1.5,0.12,15,�k�k��,7.9,34,,
2021/3/14,11:00:00,15,�k�k��,3.9,2.5,92.1,1.5,0.15,15,�k�k��,7.8,52,,
2021/3/14,12:00:00,15,�k�k��,4.2,3,90.4,1,0.18,15,�k�k��,8.5,52,,
2021/3/14,13:00:00,15,�k�k��,4.2,3.2,91.1,1.5,0.18,15,�k�k��,8.1,2,,
2021/3/14,14:00:00,14,�k��,5.3,3.7,91.7,1.5,0.15,15,�k�k��,10.3,44,,
2021/3/14,15:00:00,15,�k�k��,4.3,3.8,92.2,1.5,0.1,15,�k�k��,8.5,35,,
2021/3/14,16:00:00,14,�k��,5.7,4.2,90.5,0.5,0.06,14,�k��,9.5,48,,
2021/3/14,17:00:00,14,�k��,6,3.9,89.4,2,0.02,15,�k�k��,10,45,,
2021/3/14,18:00:00,15,�k�k��,6.2,3.9,82.7,1,0.01,15,�k�k��,11,58,,
2021/3/14,19:00:00,15,�k�k��,6.5,4.2,70.6,0,0,16,�k,12.3,33,,
2021/3/14,20:00:00,15,�k�k��,6.3,4.7,67.6,0,0,14,�k��,12.2,16,,
2021/3/14,21:00:00,15,�k�k��,6.1,4.3,66.4,0,0,15,�k�k��,12.8,15,,
2021/3/14,22:00:00,15,�k�k��,6.5,4.1,64.3,0,0,15,�k�k��,12.2,50,,
2021/3/14,23:00:00,15,�k�k��,5.8,4,71.1,0,0,14,�k��,13.7,13,,
2021/3/14,0:00:00,14,�k��,2.8,3.2,74.2,0,0,15,�k�k��,10.3,17,,
2021/3/15,1:00:00,14,�k��,4.2,3.9,71.3,0,0,15,�k�k��,9.8,56,,
2021/3/15,2:00:00,15,�k�k��,3.4,4.8,70.7,0,0,14,�k��,8,11,,
2021/3/15,3:00:00,16,�k,6.8,5,71,0,0,16,�k,14.1,40,,
2021/3/15,4:00:00,15,�k�k��,5,5.7,73.2,0,0,15,�k�k��,11.6,4,,
2021/3/15,5:00:00,14,�k��,4.8,4.6,69.8,0,0,15,�k�k��,9.5,11,,
2021/3/15,6:00:00,15,�k�k��,4,4.6,71.3,0,0.01,15,�k�k��,7.6,13,,
2021/3/15,7:00:00,14,�k��,3.9,4.4,73,0,0.03,14,�k��,6.3,59,,
2021/3/15,8:00:00,14,�k��,3.8,6.1,67.9,0,0.07,14,�k��,7.2,35,,
2021/3/15,9:00:00,14,�k��,4.2,7.1,60.2,0,0.19,14,�k��,7.8,39,,
2021/3/15,10:00:00,15,�k�k��,3.1,8,52.1,0,0.36,15,�k�k��,7.8,4,,
2021/3/15,11:00:00,14,�k��,4.2,9.8,32.2,0,0.82,15,�k�k��,7.4,28,,
2021/3/15,12:00:00,15,�k�k��,2.6,10.8,33.7,0,0.81,14,�k��,8.3,30,,
2021/3/15,13:00:00,15,�k�k��,3,11.5,42.2,0,0.82,16,�k,9.8,26,,
2021/3/15,14:00:00,16,�k,6.2,11.7,51,0,0.73,1,�k�k��,10.8,57,,
2021/3/15,15:00:00,1,�k�k��,4.4,10.9,56.8,0,0.6,1,�k�k��,11.7,14,,
2021/3/15,16:00:00,15,�k�k��,3.7,10.7,57.6,0,0.41,16,�k,7.4,16,,
2021/3/15,17:00:00,1,�k�k��,2.9,9.1,62.8,0,0.19,2,�k��,6.3,56,,
2021/3/15,18:00:00,1,�k�k��,1.6,7.1,72,0,0.02,1,�k�k��,5.8,6,,
2021/3/15,19:00:00,14,�k��,2.3,6.7,72.8,0,0,13,���k��,4.1,47,,
2021/3/15,20:00:00,14,�k��,2,4.7,80.5,0,0,14,�k��,4.3,4,,
2021/3/15,21:00:00,14,�k��,2.5,3.8,81.7,0,0,14,�k��,3.9,57,,
2021/3/15,22:00:00,14,�k��,1.8,3,86.7,0,0,14,�k��,3.9,19,,
2021/3/15,23:00:00,12,��,1,0.9,91.7,0,0,15,�k�k��,3.7,10,,
2021/3/15,0:00:00,13,���k��,3.1,-1.9,93.9,0,0,13,���k��,3.7,51,,
2021/3/16,1:00:00,14,�k��,1.2,-2.1,97.3,0,0,10,�쐼,3.3,15,,
2021/3/16,2:00:00,14,�k��,1.5,-2,96,0,0,16,�k,3.4,49,,
2021/3/16,3:00:00,13,���k��,2.2,-2.4,95.7,0,0,13,���k��,4.3,57,,
2021/3/16,4:00:00,13,���k��,2.5,-3.4,96.2,0,0,13,���k��,3.9,9,,
2021/3/16,5:00:00,12,��,2.9,-3.4,91.9,0,0,13,���k��,3.9,57,,
2021/3/16,6:00:00,13,���k��,3.1,-2.4,89.6,0,0.01,13,���k��,4.3,28,,
2021/3/16,7:00:00,14,�k��,2.5,1,69.7,0,0.14,13,���k��,4.8,28,,
2021/3/16,8:00:00,13,���k��,2.7,2.1,69.4,0,0.31,14,�k��,4.5,12,,
2021/3/16,9:00:00,14,�k��,0.8,6.2,50.6,0,0.59,13,���k��,3.9,10,,
2021/3/16,10:00:00,10,�쐼,2.3,6.7,50.2,0,0.45,11,���쐼,3.2,53,,
2021/3/16,11:00:00,6,�쓌,1.1,9.1,32.2,0,0.63,6,�쓌,2.2,56,,
2021/3/16,12:00:00,7,��쓌,1.9,8.3,42.9,0,0.58,7,��쓌,4.3,59,,
2021/3/16,13:00:00,9,��쐼,1.4,6.3,63.1,0,0.46,7,��쓌,4.6,0,,
2021/3/16,14:00:00,7,��쓌,1.3,7.1,53.4,0,0.32,7,��쓌,2.1,58,,
2021/3/16,15:00:00,2,�k��,1.3,5.3,70.3,0,0.2,1,�k�k��,2.1,46,,
2021/3/16,16:00:00,3,���k��,0.7,4.2,75.8,0,0.13,2,�k��,1.8,1,,
2021/3/16,17:00:00,16,�k,0.8,2.8,82.8,0,0.06,5,���쓌,1.5,29,,
2021/3/16,18:00:00,7,��쓌,2.2,2.4,86.6,0,0.01,7,��쓌,3.5,52,,
2021/3/16,19:00:00,15,�k�k��,0.5,1.4,90,0,0,16,�k,8.2,2,,
2021/3/16,20:00:00,3,���k��,0.9,1.8,83.4,0,0,5,���쓌,2.6,39,,
2021/3/16,21:00:00,14,�k��,0.5,0.2,94.8,0,0,16,�k,2.6,2,,
2021/3/16,22:00:00,14,�k��,2.9,3,67.4,0,0,13,���k��,5.3,41,,
2021/3/16,23:00:00,14,�k��,2.3,2,72.9,0,0,14,�k��,4.8,13,,
2021/3/16,0:00:00,13,���k��,2.5,1.2,77.7,0,0,11,���쐼,3.3,50,,
2021/3/17,1:00:00,11,���쐼,1.5,-0.5,86,0,0,12,��,2.6,41,,
2021/3/17,2:00:00,12,��,1.7,-1,84.9,0,0,13,���k��,2.5,54,,
2021/3/17,3:00:00,12,��,2.9,-1.6,87.7,0,0,12,��,4.1,52,,